Flag for U.S.A. Weather past 2 weeks in Chula Vista, California, U.S.A.

Now
53 °F

Sunny.


Feels Like: 51 °F
Forecast: 50 / 64 °F
Wind: 6 mph from South

Location: Brown Field Municipal Airport

Current Time: Dec 20, 2014 at 10:01:35 AM

Latest Report: Dec 20, 2014 at 8:53 AM


Visibility: 9 mi

Pressure: 30.20 "Hg

Humidity: 77%

Dew point: 46 °F

Location of Chula VistaLocation

Historic Weather in Chula Vista — Graph

°F

Chula Vista temperature yesterday

Maximum temperature yesterday: 66 °F (at 11:53 AM)
Minimum temperature yesterday: 46 °F (at 4:53 AM)
Average temperature yesterday: 55 °F

Past Weeks' High & Low Weather Summary

 TemperatureHumidityPressure
High80 °F (Dec 7, 12:53 PM)100% (Dec 9, 7:53 PM)30.24 "Hg (Dec 9, 7:53 PM)
Low43 °F (Dec 14, 6:53 AM)31% (Dec 7, 12:53 PM)29.90 "Hg (Dec 11, 3:53 PM)
Average58 °F78%30.07 "Hg
* Reported Dec 5 8:53 AM — Dec 20 8:53 AM, Chula Vista, Weather by CustomWeather, © 2014

Note: Actual official high and low records may vary slightly from our data, if they occured in-between our weather recording intervals... More about our weather records

Advertising

Chula Vista weather history for previous 24 hours

 ConditionsComfort  
Time TempWeatherWind HumidityBarometerVisibility
8:53 AM
Dec 20
53 °FSunny.6 mph77%30.20 "Hg9 mi
7:53 AM49 °FSunny.6 mph86%30.19 "Hg9 mi
6:53 AM49 °FSunny.6 mph86%30.17 "Hg7 mi
5:53 AM47 °FClear.7 mph90%30.13 "Hg9 mi
4:53 AM48 °FClear.6 mph89%30.14 "Hg10 mi
3:53 AM49 °FFog.5 mph93%30.13 "Hg6 mi
2:53 AM51 °FClear.7 mph89%30.13 "Hg8 mi
1:53 AM51 °FClear.6 mph89%30.16 "Hg7 mi
12:53 AM48 °FClear.3 mph93%30.16 "Hg9 mi
11:53 PM
Dec 19
53 °FPassing clouds.5 mph89%30.16 "Hg10 mi
10:53 PM54 °FPassing clouds.7 mph86%30.16 "Hg10 mi
9:53 PM54 °FPassing clouds.No wind86%30.17 "Hg10 mi
8:53 PM55 °FPassing clouds.No wind87%30.18 "Hg10 mi
7:53 PM56 °FClear.No wind81%30.17 "Hg10 mi
6:53 PM56 °FClear.No wind75%30.15 "Hg10 mi
5:53 PM58 °FClear.3 mph70%30.15 "Hg10 mi
4:53 PM59 °FClear.No wind69%30.13 "Hg10 mi
3:53 PM61 °FSunny.6 mph67%30.14 "Hg10 mi
2:53 PM63 °FSunny.8 mph63%30.15 "Hg10 mi
1:53 PM64 °FSunny.12 mph58%30.15 "Hg10 mi
12:53 PM66 °FSunny.N/A50%30.15 "Hg10 mi
11:53 AM66 °FSunny.5 mph45%30.16 "Hg10 mi
10:53 AM63 °FSunny.No wind54%30.21 "Hg10 mi
Weather by CustomWeather, © 2014

See weather overviewHow to use our weather pages